STARLINK-37485, 69376

Orbit data source: Space-Track

STARLINK-37485, 69376 is a payload satellite owned by SpaceX/Seattle (US) in LEO that was launched on Thu, 04 Jun 2026 UTC via an FALCON 9 launch vehicle from the Air Force Eastern Test Range (AFETR). Payload-class satellites include a variety of spacecraft equipped with specific instruments for various scientific and technological missions. These include communications satellites like Starlink; space stations such as the ISS; scientific satellites like the Hubble; Earth observation satellites from companies like Planet Labs, Umbra, and HawkEye 360; GPS; miniature CubeSats for education and research; and military/defense satellites.

Loading next visibility...
Identifier
69376, 2026-123Z
Orbit
LEO
Country
Flag of USUS
Related business
Manufacturer
SpaceX/Seattle
Mission
Operational spacecraft
Bus & Motor
STARLINK V2MO, Unknown motor
Mass
575 kg wet, ~530 kg dry
Launch date (UTC)
2026-06-04 (2 months ago)
Launch vehicle
FALCON 9
Launch site
Air Force Eastern Test Range (AFETR)
Object type
Payload
Rocket body
Debris
Shape & HBR
BOX + PAN, 17.7 m
Radar Cross Section
Large (>1 m²)

Expand to show TLE details & history
Last TLE update: 9 hours ago

TLE from 9 hours ago
0 STARLINK-37485
1 69376U 26123Z   26207.56061958  .00256029  00000-0  16182-2 0  9996
2 69376  53.1558  45.2387 0000998  98.8715 261.2418 15.75325621  8259
Epoch: 2026-07-26T13:27Z
TLE epoch observation values (Epoch: 2026-07-26T13:27:17.531Z)
Latitude
-0.00006°
Longitude
-100.84118°
Altitude
344.724 km
Speed
7.703 km/s
True Right ascension
03h 00m 57s
True Declination
0° 00' 00"
Sunlit
Object was in daylight at epoch
Visualization orbit readout
Latitude
Unknown
Longitude
Unknown
Altitude
Unknown
Speed
Unknown
Apparent Right ascension
Unknown
Apparent Declination
Unknown
Sunlit
N/A
Visualization observer readout
Local Sidereal Time
11:36:30
Azimuth
Unknown
Elevation
Unknown
Doppler factor
Unknown
Orbital elements
Apogee altitude
344.638 km
Perigee altitude
343.296 km
Semi-major axis
6,722.104 km
Eccentricity
0.0001
Inclination
53.1558°
RAAN
45.2387°
Arg. of periapsis
98.8715°
True anomaly
261.2305°
Mean anomaly
261.2418°
Eccentric anomaly
261.23615°
Mean motion
3.93809 °/min
Orbital period
91.41 mins
BSTAR
0.0016182
Loading maneuver chart data...
Computing Atmospheric mass density...
Loading historical data...
Loading historical data...
Loading historical data...
Loading historical data...
Loading historical data...
Loading historical data...
Loading historical data...

Documentation

Showing up to 5 results
|